Other Public Products
Issued by NWS Grand Forks, ND

Home | Current Version | Previous Version | Graphics & Text | Print | Product List | Glossary On
Versions: 1 2 3 4 5 6 7 8 9 10 11 12 13 14 15 16 17 18 19 20 21 22 23 24 25 26 27 28 29 30 31 32 33 34 35 36 37 38 39 40 41 42 43 44 45 46 47 48 49 50
000
FPUS83 KFGF 221631
OPUFGF
PRAIRIE TO PINES WEATHER ROUNDUP
NATIONAL WEATHER SERVICE EASTERN NORTH DAKOTA/GRAND FORKS ND
1000 AM CST MON DEC 22 2014

 **SATELLITE DATA USED TO AUGMENT SKY COVER AT AUTOMATED STATIONS**
 *****  WEATHER ACROSS EASTERN NORTH DAKOTA  *****

CITY           SKY/WX    TMP DP  RH WIND       PRES   REMARKS
GRAND FORKS    CLOUDY    35  35 100 E12       29.54R
GRAND FORKS AF NOT AVBL
GRAND CITY NWS NOT AVBL
BUXTON           N/A     35  35  99 E8          N/A
DEVILS LAKE    CLOUDY    32  27  80 NE8       29.50R WCI  25
FARGO          CLOUDY    38  37  97 E6        29.51S FOG
WAHPETON ARPT  CLOUDY    36  34  93 SE9       29.50S
$$

 *****  WEATHER ACROSS CENTRAL AND WESTERN NORTH DAKOTA  *****

CITY           SKY/WX    TMP DP  RH WIND       PRES   REMARKS
JAMESTOWN      FOG       33  32  96 NE7       29.46R VSB 1/4
BISMARCK       CLOUDY    29  28  96 NE6       29.50R WCI  23
MINOT          CLOUDY    28  26  92 NE7       29.52R FOG     WCI  21
MINOT AFB      NOT AVBL
GARRISON         N/A     29  27  92 N5        29.49R WCI  24
WILLISTON      CLOUDY    27  22  81 NW20G25   29.57R WCI  13
DICKINSON      CLOUDY    27  23  85 NW18      29.48R WCI  14
HETTINGER      LGT SNOW  30  26  85 NW22G32   29.51R FOG     WCI  17
$$

 *****  OTHER OBSERVATIONS NORTHEAST NORTH DAKOTA  *****

CITY           SKY/WX    TMP DP  RH WIND       PRES   REMARKS
WALHALLA       MIX PCPN  32  32 100 E5        29.59R
LANGDON        FOG       32  32 100 E9        29.54R VSB 1/4 WCI  24
CAVALIER       CLOUDY    32  32 100 E6        29.58R FOG
GRAFTON        NOT AVBL
CANDO          CLOUDY    32  32 100 NE6       29.54R FOG
FORT TOTTEN      N/A     31  31 100 CALM      29.95S
ROLLA          CLOUDY    28  28 100 NE7       29.55R FOG     WCI  21
RUGBY          CLOUDY    28  28 100 NE7       29.53R FOG     WCI  21
 ***** THE ABOVE OBSERVATIONS ARE NON NWS ARE NOT QUALITY
        CONTROLLED AND MAY MIS-REPORT RAIN FOR SNOW...
$$

 *****  OTHER OBSERVATIONS SOUTHEAST NORTH DAKOTA *****

CITY           SKY/WX    TMP DP  RH WIND       PRES   REMARKS
COOPERSTOWN    NOT AVBL
VALLEY CITY    FOG       32  32 100 E8        29.47S VSB<1/4 WCI  25
OAKES          MIX PCPN  34  34 100 E8        29.45R VSB<1/4
GWINNER        CLOUDY    36  36 100 SE12      29.47R VSB 1/2
SHEYENNE NWR     N/A     36  36 100 SE8       29.95S
BUFFALO        NOT AVBL
WYNDMERE         N/A     36  39 100 SE7         N/A
 ***** THE ABOVE OBSERVATIONS ARE NON NWS ARE NOT QUALITY
       CONTROLLED AND MAY MIS-REPORT RAIN FOR SNOW...
$$

  *****  WEATHER ACROSS NORTHERN MINNESOTA  *****

CITY           SKY/WX    TMP DP  RH WIND       PRES   REMARKS
FLAG ISLAND    CLOUDY    34  32  93 E8        29.63R FOG
WARROAD        CLOUDY    34  30  86 E8        29.62R FOG
ROSEAU         CLOUDY    36  30  80 E8        29.60S HAZE
HALLOCK        MOSUNNY   36  34  93 E9        29.58R FOG
THF RVR FALLS  CLOUDY    36  34  93 E13       29.57R
HALSTAD          N/A     36  36  98 SE9         N/A
FOSSTON        CLOUDY    34  34 100 E6        29.56S FOG
BAUDETTE       CLOUDY    34  32  92 E10       29.62S
WASKISH        CLOUDY    36  36 100 CALM      29.62R
CROOKSTON      CLOUDY    36  36 100 E10       29.56R FOG
$$
  *****  WEATHER ACROSS CENTRAL AND WEST MINNESOTA  *****

CITY           SKY/WX    TMP DP  RH WIND       PRES   REMARKS
BEMIDJI        CLOUDY    35  34  99 SE8       29.58R FOG
PARK RAPIDS    CLOUDY    36  35  96 SE13      29.56R FOG
WADENA         CLOUDY    36  36 100 SE13      29.55S FOG
DETROIT LAKES  DRIZZLE   36  36 100 SE13      29.54R
MOORHEAD       LGT RAIN  37  37 100 SE5       29.52R
FERGUS FALLS   DRIZZLE   37  37 100 SE12      29.54R
ELBOW LAKE     DRIZZLE   37  37 100 SE12      29.51R
MORRIS MN      CLOUDY    37  36  93 SE15G22   29.50S FOG
STAPLES        CLOUDY    36  36 100 SE8       29.58R FOG
WHEATON        CLOUDY    36  34  93 SE15      29.51R FOG
$$
  *****  WEATHER ELSEWHERE ACROSS MINNESOTA  *****

CITY           SKY/WX    TMP DP  RH WIND       PRES   REMARKS
DULUTH         SNOW      33  32  96 E9        29.69S VSB 1/4
INTRNTL FALLS  MIX PCPN  33  32  96 E7        29.66R FOG
ELY            LGT SNOW  34  32  93 SE6       29.70S
CLOQUET        SNOW      34  32  93 SE5       29.69R VSB 1/2
BRAINERD       CLOUDY    36  35  96 SE8       29.61S FOG
HIBBING        LGT SNOW  34  31  88 SE10      29.67R FOG
ALEXANDRIA     FOG       36  35  96 SE13      29.54R VSB 1
SAINT CLOUD    CLOUDY    39  35  86 SE14G20   29.61R FOG
MINNEAPOLIS    LGT RAIN  36  33  89 SE13      29.66S FOG
$$

  *****  WEATHER ACROSS SOUTH DAKOTA  *****

CITY           SKY/WX    TMP DP  RH WIND       PRES   REMARKS
SIOUX FALLS    LGT RAIN  40  40 100 S7        29.45S FOG
BROOKINGS      NOT AVBL
WATERTOWN      CLOUDY    38  36  92 SE10      29.42S
HURON          CLOUDY    30  28  92 NW6       29.44S WCI  24
SISSETON         N/A     36  36 100 S12       29.46S
ABERDEEN       SNOW      33  32  96 CALM      29.44R VSB 1/2
MITCHELL       CLOUDY    35  33  92 W6        29.46R
PIERRE         CLOUDY    37  34  89 NW15      29.46R
MOBRIDGE       CLOUDY    33  32  96 N7        29.42S FOG
RAPID CITY     PTSUNNY   41  21  44 NW23G31   29.54S
$$

  *****  SOME WEATHER IN NEARBY STATES *****

CITY           SKY/WX    TMP DP  RH WIND       PRES   REMARKS
GLASGOW MT     CLOUDY    31  25  78 NW25G38   29.66R WCI  17
GREAT FALLS MT CLOUDY    34  24  67 W13       29.79R WCI  25
CHEYENNE WY    CLOUDY    27  14  58 NW12      29.69F WCI  17
SCOTTSBLUFF NE MOSUNNY   33  25  72 W10       29.69S WCI  25
OMAHA NE       LGT RAIN  42  40  92 SE15      29.52F FOG
DES MOINES IA  LGT RAIN  40  37  89 SE10      29.61F FOG
DAVENPORT IA   CLOUDY    36  30  79 SE16      29.75F
CHICAGO IL     CLOUDY    35  27  72 E7        29.87F
EAU CLAIRE WI  CLOUDY    36  32  85 SE9       29.74S FOG
LA CROSSE WI   CLOUDY    39  32  76 SE10      29.75F
$$

  *****  SOME NATIONAL WEATHER *****

CITY           SKY/WX    TMP DP  RH WIND       PRES   REMARKS
LA GUARDIA NY  CLOUDY    41  36  82 NE13      30.32S
RALEIGH NC     CLOUDY    38  35  89 VRB7      30.15F FOG
ATLANTA GA     DRZL/FOG  45  44  97 E10       30.02S VSB 1/2
NEW ORLEANS LA PTSUNNY   66  62  87 SE8       29.83S FOG
OKLAHOMA CITY  CLOUDY    52  45  76 NW16      29.62R
ALBUQUERQUE NM PTSUNNY   41  33  73 S6        29.91S
SALT LAKE CITY LGT RAIN  38  36  92 E8        30.00R
LOS ANGELES CA MOSUNNY   55  50  83 CALM      30.05R FOG
BOISE ID       CLOUDY    40  39  97 W5        30.11S
SEATTLE WA     PTCLDY    45  38  76 SE5       30.32R
$$

*** WEATHER ACROSS MANITOBA...SASKATCHEWAN AND ONTARIO ***
                ***ONTARIO***

CITY           SKY/WX    TMP DP  RH WIND       PRES   REMARKS
GERALDTON      DRZL/FOG  34  34 100 S7        29.85R VSB 1/4
THUNDER BAY    LGT RAIN  36  34  93 E5        29.82  FOG
SIOUX LOOKOUT  DRIZZLE   32  32 100 E3        29.72  FOG
TORONTO        CLOUDY    32  25  74 SE10      30.18  WCI  24
BIG TROUT LK   LGT SNOW  28  28 100 SE3       29.78R
PICKLE LAKE    FLURRIES  30  28  93 SE6       29.75  WCI  24
DRYDEN         LGT SNOW  32  32 100 SE8       29.69S WCI  25
KENORA         SNOW      32  32 100 E9        29.66  VSB 1/2 WCI  24
$$
                *** MANITOBA***

CITY           SKY/WX    TMP DP  RH WIND       PRES   REMARKS
BRANDON        FRZ DRZL  28  28 100 E9        29.60  FOG     WCI  20
DAUPHIN        LGT SNOW  28  28 100 NE7       29.66R VSB 3/4 WCI  21
ISLAND LAKE    CLOUDY    28  27  93 NE3       29.75R
PILOT MOUND      N/A     30  30 100 CALM        N/A
THE PAS        CLOUDY    25  23  93 NE2       29.76  FOG
THOMPSON       FRZ DRZL  19  18  93 NE7       29.83  WCI  10
WINNIPEG       CLOUDY    32  32 100 E9        29.64  WCI  24
LYNN LAKE      FLURRIES  10   9  92 N5        29.85R WCI   2
CHURCHILL      FLURRIES  19  18  93 N13       29.91  WCI   7
GILLAM         FRZ DRZL  16  14  93 NE7       29.88R WCI   6
$$
                ***SASKATCHEWAN***

CITY           SKY/WX    TMP DP  RH WIND       PRES   REMARKS
ESTEVAN        FOG       28  27  93 NE7       29.57R VSB 1/4 WCI  21
KINDERSLEY     CLOUDY    21  18  86 NW8       29.73R WCI  12
LLOYDMINSTER   CLOUDY    19  18  93 NW8       29.73  FOG     WCI   9
PRINCE ALBERT  CLOUDY    21  21 100 NW3       29.74
REGINA         FOG       23  23 100 N8        29.64  VSB 5/8 WCI  14


USA.gov is the U.S. government's official web portal to all federal, state and local government web resources and services.